[[{"header":{"parameterUnit":"m.s-1","parameterCategory":1,"la1":30.2991,"la2":30.254,"lo1":-89.0895,"lo2":-89.0444,"dy":0.0017,"dx":0.0017,"nx":28,"ny":28,"refTime":"2023-07-26T03:00:00:Z","depth":0,"parameterNumber":2,"parameterNumberName":"U-component_of_WINDS"},"data":[0,0,0,0,0,0,0,0,0,0,0,0,0,0,0,0,0,0,0,0,0,0,0,0,0,0,0,0,0,0,0,0,0,0,0,0,0,0,0,0,0,0,0,0,0,0,0,0,0,0,0,0,0,0,0,0,0,0,0.8199,0.8202,0,0.8442,0.8444,0.8447,0.8564,0.8564,0.8564,0.8564,0.8813,0.8819,0.8826,0,0,0,0,0,0,0,0,0,0,0,0,0,0.7836,0.7842,0.8199,0.8202,0.8205,0.8441,0.8445,0.8448,0.8564,0.8564,0.8564,0.8564,0.8811,0.8819,0.8827,0,0,0,0,0,0,0,0,0,0,0,0,0,0.8028,0.7844,0.8199,0.8292,0.8302,0.8441,0.8445,0.8449,0.8564,0.8564,0.8564,0.8564,0.8808,0.8818,0.8828,0.8892,0,0,0.8859,0.8863,0,0,0,0,0,0,0,0,0.8017,0.8041,0.8275,0.8285,0.8298,0.8472,0.8408,0.8597,0.8564,0.8465,0.8564,0.8563,0.87,0.8719,0.8765,0.8904,0.8915,0.8859,0.8866,0.887,0.8873,0,0,0,0,0,0,0,0.8003,0.8031,0.8295,0.8278,0.8292,0.8321,0.8348,0.8445,0.858,0.8473,0.8482,0.8509,0.8706,0.8754,0.8771,0.8918,0.8859,0.8868,0.8874,0.8878,0.9122,0.9122,0,0,0,0,0,0,0.7975,0.8019,0.8288,0.8302,0.8154,0.8327,0.8358,0.8416,0.8579,0.8604,0.8509,0.8514,0.8737,0.8759,0.878,0.8867,0.887,0.8879,0.8885,0.9122,0.9122,0.9123,0,0,0,0,0,0,0.7967,0.7998,0.8278,0.8163,0.8201,0.8334,0.8399,0.8421,0.847,0.8606,0.8631,0.8534,0.8738,0.8766,0.8863,0.8877,0.8884,0.8893,0.9121,0.9122,0.9122,0.9039,0,0,0,0,0,0,0.7956,0.7994,0.802,0.8163,0.8207,0.8356,0.84,0.8426,0.8487,0.8495,0.8636,0.8659,0.874,0.8848,0.8873,0.8891,0.8901,0.912,0.9121,0.9122,0.9041,0.9036,0.9033,0,0,0,0,0,0.7942,0.7988,0.8021,0.8053,0.8242,0.8357,0.8382,0.8474,0.8487,0.8515,0.8602,0.8655,0.8871,0.8857,0.8887,0.8907,0.912,0.9121,0.9122,0.9043,0.9037,0.9033,0,0,0,0,0,0,0.7844,0.8008,0.8047,0.814,0.8233,0.8376,0.8414,0.8465,0.8557,0.8562,0.8672,0.8703,0.8789,0.8858,0.884,0.8978,0.9,0.9007,0.893,0.8926,0.8922,0.8904,0.8909,0,0,0,0,0,0.7832,0.7912,0.8051,0.812,0.8164,0.828,0.8334,0.8396,0.8498,0.8538,0.8633,0.873,0.8819,0.8876,0.8966,0.9051,0.9083,0.908,0.9075,0.9071,0.9076,0.9125,0.9126,0.9126,0.9126,0.9126,0,0,0.7811,0.791,0.7954,0.8102,0.8182,0.8262,0.8313,0.8395,0.8456,0.8551,0.8649,0.872,0.8836,0.8926,0.8971,0.8986,0.9083,0.9072,0.9068,0.9076,0.9126,0.9126,0.9126,0.9126,0.9126,0.9126,0,0,0.7812,0.7895,0.7961,0.8039,0.8159,0.8236,0.8251,0.8386,0.8438,0.8537,0.861,0.8682,0.8835,0.8914,0.8973,0.9001,0.9053,0.9027,0.9006,0.9053,0.9053,0.9053,0.9063,0.9066,0.9032,0.9032,0.9031,0,0.777,0.7893,0.7988,0.8066,0.8129,0.8217,0.8285,0.8356,0.8499,0.854,0.8555,0.8747,0.8831,0.8941,0.8947,0.8993,0.9014,0.9013,0.9045,0.9047,0.9048,0.9059,0.9063,0.9028,0.9028,0.9029,0.9029,0,0.7835,0.7919,0.7957,0.8092,0.8159,0.8231,0.8337,0.8393,0.8449,0.8523,0.8622,0.8726,0.8838,0.8868,0.8924,0.8986,0.8991,0.9024,0.9049,0.9043,0.9055,0.906,0.9022,0.9024,0.9025,0.9026,0,0,0.7784,0.7968,0.7981,0.8043,0.818,0.8247,0.8322,0.8431,0.8477,0.8571,0.8637,0.8763,0.8793,0.8861,0.8926,0.8966,0.8981,0.8994,0.8999,0.8989,0.9056,0.9031,0.9034,0.9016,0.9017,0.9018,0.9046,0,0.7804,0.7943,0.803,0.8134,0.8212,0.8296,0.8362,0.8453,0.8524,0.86,0.8679,0.8766,0.88,0.8841,0.8885,0.897,0.8996,0.8969,0.9079,0.9081,0.9048,0.9041,0.9015,0.9037,0.9051,0.9052,0.9053,0,0.7848,0.7939,0.8051,0.8178,0.8214,0.8271,0.8377,0.8449,0.8554,0.8602,0.8676,0.8742,0.8824,0.8841,0.8956,0.8935,0.8985,0.9033,0.9036,0.9051,0.9067,0.9055,0.9046,0.9049,0.9061,0.9061,0.906,0,0.7799,0.795,0.8036,0.8086,0.8237,0.8275,0.834,0.8444,0.8503,0.8595,0.8635,0.8735,0.8791,0.8867,0.8957,0.8961,0.9063,0.9087,0.9106,0.9104,0.9125,0.9123,0.9124,0.9155,0.9155,0.9155,0.9155,0,0.7814,0.7879,0.8016,0.8069,0.8144,0.8242,0.8314,0.8385,0.8476,0.8545,0.8623,0.8685,0.88,0.8877,0.8948,0.9032,0.9056,0.9098,0.9116,0.9092,0.9086,0.9127,0.9128,0.9156,0.9156,0.9155,0.9155,0,0.7773,0.7867,0.7967,0.81,0.8135,0.8184,0.8299,0.8353,0.8427,0.8512,0.8538,0.8654,0.8748,0.8845,0.8972,0.902,0.9101,0.9127,0.9066,0.9076,0.909,0.9087,0.9118,0.9127,0.915,0.9149,0.9149,0,0.7777,0.7828,0.7967,0.8017,0.808,0.8161,0.8221,0.8319,0.8379,0.85,0.854,0.8639,0.8724,0.8869,0.8965,0.9062,0.9091,0.9095,0.9106,0.9079,0.9091,0.9087,0.9093,0.9091,0.909,0.909,0.9089,0,0.7773,0.7817,0.7901,0.8,0.807,0.8153,0.8239,0.8276,0.8391,0.8454,0.855,0.8615,0.8744,0.8841,0.895,0.9017,0.9072,0.9084,0.9094,0.907,0.9033,0.9053,0.9056,0.9084,0.9084,0.9085,0.9085,0.9085,0.7756,0.7805,0.791,0.8,0.8075,0.8153,0.821,0.829,0.8372,0.8484,0.8536,0.8632,0.8734,0.8885,0.895,0.9027,0.9043,0.9056,0.906,0.9062,0.9056,0.9019,0.9047,0.9047,0.9047,0.9048,0.9048,0,0.7757,0.7827,0.7909,0.8027,0.8097,0.8141,0.8239,0.8295,0.8378,0.8468,0.8549,0.8658,0.8752,0.8855,0.8955,0.8997,0.9024,0.902,0.9018,0.9033,0.9036,0.9018,0.8995,0.8995,0.8995,0.8995,0.8995,0.8995,0.7765,0.7851,0.7907,0.8029,0.81,0.8194,0.8246,0.8318,0.839,0.8509,0.8587,0.8652,0.8747,0.8855,0.8943,0.8971,0.9004,0.8992,0.9027,0.9028,0.9032,0.9036,0.902,0.8998,0.8998,0.9017,0.9017,0.9018]},{"header":{"parameterUnit":"m.s-1","parameterCategory":1,"la1":30.2991,"la2":30.254,"lo1":-89.0895,"lo2":-89.0444,"dy":0.0017,"dx":0.0017,"nx":28,"ny":28,"refTime":"2023-07-26T03:00:00:Z","depth":0,"parameterNumber":3,"parameterNumberName":"V-component_of_WINDS"},"data":[0,0,0,0,0,0,0,0,0,0,0,0,0,0,0,0,0,0,0,0,0,0,0,0,0,0,0,0,0,0,0,0,0,0,0,0,0,0,0,0,0,0,0,0,0,0,0,0,0,0,0,0,0,0,0,0,0,0,2.8495,2.8494,0,2.8421,2.842,2.842,2.8374,2.8374,2.8374,2.8373,2.8293,2.8291,2.8289,0,0,0,0,0,0,0,0,0,0,0,0,0,2.8592,2.859,2.8495,2.8494,2.8493,2.8421,2.842,2.8419,2.8374,2.8374,2.8374,2.8373,2.8294,2.8291,2.8289,0,0,0,0,0,0,0,0,0,0,0,0,0,2.8537,2.859,2.8495,2.8462,2.8458,2.8422,2.842,2.8419,2.8374,2.8374,2.8374,2.8373,2.8294,2.8292,2.8289,2.8278,0,0,2.828,2.8279,0,0,0,0,0,0,0,0,2.854,2.8533,2.8468,2.8464,2.846,2.8407,2.8425,2.8371,2.8374,2.8406,2.8373,2.8373,2.8331,2.8325,2.8312,2.8274,2.827,2.828,2.8278,2.8277,2.8276,0,0,0,0,0,0,0,2.8544,2.8536,2.8466,2.8467,2.8462,2.8449,2.8441,2.8415,2.8371,2.8403,2.84,2.8392,2.8329,2.8315,2.8309,2.8269,2.828,2.8277,2.8275,2.8274,2.8216,2.8217,0,0,0,0,0,0,2.8554,2.854,2.8468,2.8463,2.85,2.8448,2.8439,2.8424,2.8371,2.8363,2.8392,2.839,2.832,2.8313,2.8306,2.8288,2.8277,2.8274,2.8272,2.8216,2.8216,2.8217,0,0,0,0,0,0,2.8556,2.8548,2.8471,2.8501,2.849,2.8447,2.843,2.8423,2.8409,2.8363,2.8355,2.8386,2.8319,2.831,2.8285,2.8285,2.8273,2.827,2.8216,2.8216,2.8217,2.8254,0,0,0,0,0,0,2.8559,2.8549,2.8545,2.8501,2.8489,2.8453,2.843,2.8422,2.8404,2.8401,2.8355,2.8347,2.8318,2.829,2.8282,2.8281,2.8268,2.8216,2.8216,2.8216,2.8252,2.8255,2.8258,0,0,0,0,0,2.8562,2.8558,2.8545,2.8537,2.8484,2.8453,2.8445,2.8414,2.8405,2.84,2.837,2.8349,2.8287,2.8287,2.8279,2.8276,2.8216,2.8216,2.8216,2.8251,2.8255,2.8258,0,0,0,0,0,0,2.8602,2.8552,2.8537,2.8519,2.849,2.8445,2.8438,2.8419,2.8391,2.8389,2.8349,2.8339,2.8317,2.8294,2.8296,2.8262,2.8248,2.8247,2.8278,2.8281,2.8283,2.8289,2.8265,0,0,0,0,0,2.8609,2.859,2.8546,2.8534,2.852,2.8482,2.8467,2.8445,2.8414,2.8401,2.837,2.8339,2.8312,2.8295,2.8268,2.8249,2.8237,2.8243,2.8246,2.8248,2.8247,2.8233,2.8235,2.8218,2.8218,2.8218,0,0,2.8622,2.8592,2.8582,2.8541,2.8517,2.8496,2.8472,2.8451,2.8435,2.8397,2.8372,2.8348,2.831,2.8287,2.8276,2.8268,2.8249,2.8249,2.8251,2.8249,2.8234,2.8236,2.8237,2.8218,2.8218,2.8218,0,0,2.8636,2.8612,2.8599,2.8575,2.8539,2.8513,2.851,2.8468,2.845,2.8424,2.8395,2.8374,2.833,2.8304,2.8285,2.8288,2.8266,2.828,2.8294,2.8281,2.8283,2.8284,2.8283,2.8284,2.828,2.828,2.828,0,2.8656,2.8626,2.8594,2.8575,2.8556,2.8523,2.8508,2.8486,2.8442,2.843,2.8422,2.8364,2.8337,2.8307,2.8308,2.8294,2.8287,2.8285,2.8286,2.8286,2.8286,2.8285,2.8286,2.8282,2.8281,2.8281,2.8281,0,2.8652,2.8631,2.8624,2.8584,2.8565,2.8548,2.8512,2.8496,2.8476,2.8451,2.8423,2.8389,2.8354,2.8345,2.8325,2.8312,2.8308,2.8293,2.8279,2.829,2.8289,2.8288,2.8284,2.8284,2.8283,2.8283,0,0,2.8688,2.8631,2.8629,2.861,2.8567,2.8549,2.853,2.8497,2.8484,2.8455,2.8436,2.8399,2.8385,2.8363,2.8339,2.8328,2.8331,2.8315,2.8313,2.8318,2.8313,2.8323,2.8324,2.8317,2.8317,2.8317,2.8315,0,2.8694,2.8659,2.863,2.8605,2.8584,2.8552,2.8535,2.8506,2.8482,2.8459,2.8431,2.8405,2.839,2.8376,2.8364,2.8334,2.8329,2.8333,2.8297,2.8296,2.8307,2.8323,2.8334,2.8335,2.8315,2.8315,2.8315,0,2.8696,2.867,2.8644,2.8603,2.8593,2.8578,2.8545,2.8525,2.849,2.8473,2.8449,2.8424,2.84,2.8389,2.8354,2.8358,2.8341,2.8324,2.8323,2.8317,2.8306,2.8316,2.8334,2.8334,2.8314,2.8314,2.8314,0,2.8723,2.8681,2.866,2.8644,2.8596,2.8587,2.8566,2.8531,2.8513,2.8484,2.8471,2.8439,2.8421,2.8396,2.8362,2.8357,2.833,2.8316,2.8313,2.8314,2.8308,2.8309,2.8322,2.83,2.83,2.83,2.83,0,2.8732,2.8717,2.8671,2.8658,2.8639,2.8605,2.8587,2.8563,2.8533,2.8513,2.8483,2.8464,2.8421,2.8397,2.837,2.8345,2.8337,2.8321,2.8314,2.8323,2.8325,2.8311,2.8309,2.83,2.83,2.83,2.83,0,2.8759,2.8728,2.8702,2.8659,2.8648,2.8636,2.8598,2.8583,2.8557,2.8532,2.8524,2.8483,2.8452,2.8417,2.8375,2.8356,2.8333,2.8323,2.8345,2.834,2.8339,2.8339,2.8343,2.8341,2.8321,2.8321,2.8322,0,2.8766,2.8754,2.871,2.8695,2.8676,2.8652,2.8634,2.8599,2.8581,2.8541,2.853,2.8498,2.847,2.8423,2.8388,2.8355,2.8344,2.8347,2.8338,2.8348,2.8342,2.8343,2.834,2.8349,2.835,2.835,2.835,0,2.8782,2.8767,2.8743,2.8713,2.8692,2.8666,2.8639,2.8628,2.8587,2.8568,2.8538,2.8517,2.8474,2.8442,2.8405,2.8381,2.8358,2.8354,2.8351,2.8359,2.8372,2.8364,2.835,2.8353,2.8353,2.8353,2.8353,2.8352,2.8798,2.8785,2.8752,2.8725,2.8702,2.8677,2.866,2.8633,2.8608,2.8572,2.8552,2.8522,2.8486,2.8434,2.8411,2.8386,2.8378,2.8374,2.8373,2.8373,2.8375,2.8378,2.8379,2.8379,2.8379,2.8379,2.8378,0,2.8811,2.8788,2.8764,2.8728,2.8706,2.8689,2.8658,2.8641,2.8615,2.8585,2.8559,2.8523,2.8492,2.8455,2.842,2.8407,2.8395,2.8399,2.8398,2.8393,2.8384,2.839,2.8408,2.8408,2.8408,2.8408,2.8408,2.8408,2.8815,2.8792,2.8773,2.8738,2.8714,2.8686,2.867,2.8646,2.8621,2.8584,2.8558,2.8535,2.8501,2.8464,2.8434,2.8423,2.8411,2.8418,2.8404,2.8396,2.8394,2.8391,2.8396,2.8416,2.8416,2.8415,2.8415,2.8415]}]]